Tracking 25648 objects as of 16-May-2022
HD Live streaming from Space Station
objects crossing your sky now

COSMOS 2251 DEB

Track COSMOS 2251 DEB now!
10-day predictions


NORAD ID: 37293
Int'l Code: 1993-036BJH
Perigee: 733.6 km
Apogee: 849.6 km
Inclination: 73.9 °
Period: 100.5 minutes
Semi major axis: 7162 km
RCS: 0.0083 m2 (small)
Launch date: June 16, 1993
Source: Commonwealth of Independent States (former USSR) (CIS)
Launch site: PLESETSK MISSILE AND SPACE COMPLEX (PKMTR)

Note: This is SATELLITE DEBRIS
aabbcc
Your satellite tracking list
Your tracking list is empty




NASA's NSSDC Master Catalog

Two Line Element Set (TLE):
1 37293U 93036BJH 22133.83020613  .00001753  00000-0  63737-3 0  9994
2 37293  73.9213 187.2001 0080947  14.7919 345.5571 14.32183277465664
Source of the keplerian elements: AFSPC